[[{"header":{"parameterUnit":"m.s-1","parameterCategory":1,"la1":30.2991,"la2":30.254,"lo1":-89.0895,"lo2":-89.0444,"dy":0.0017,"dx":0.0017,"nx":28,"ny":28,"refTime":"2023-08-03T03:00:00:Z","depth":0,"parameterNumber":2,"parameterNumberName":"U-component_of_WINDS"},"data":[0,0,0,0,0,0,0,0,0,0,0,0,0,0,0,0,0,0,0,0,0,0,0,0,0,0,0,0,0,0,0,0,0,0,0,0,0,0,0,0,0,0,0,0,0,0,0,0,0,0,0,0,0,0,0,0,0,0,2.5005,2.5005,0,2.5011,2.5011,2.5011,2.4992,2.4991,2.4991,2.499,2.4996,2.4996,2.4997,0,0,0,0,0,0,0,0,0,0,0,0,0,2.4979,2.498,2.5005,2.5005,2.5005,2.5011,2.5011,2.5011,2.4992,2.4991,2.4991,2.499,2.4995,2.4996,2.4997,0,0,0,0,0,0,0,0,0,0,0,0,0,2.4988,2.498,2.5005,2.4996,2.4996,2.5011,2.5011,2.5011,2.4992,2.4991,2.499,2.499,2.4995,2.4996,2.4997,2.5021,0,0,2.5,2.5001,0,0,0,0,0,0,0,0,2.4988,2.4989,2.4998,2.4997,2.4996,2.5,2.5004,2.5014,2.4992,2.4993,2.499,2.4989,2.4998,2.4998,2.5001,2.5021,2.5021,2.5,2.5001,2.5001,2.5002,0,0,0,0,0,0,0,2.4987,2.4989,2.5007,2.4998,2.4997,2.4993,2.4993,2.5006,2.5,2.4993,2.4992,2.4993,2.4997,2.5,2.5001,2.5021,2.5,2.5001,2.5002,2.5002,2.5063,2.5064,0,0,0,0,0,0,2.4987,2.4988,2.5007,2.5008,2.499,2.4994,2.4994,2.5,2.5,2.4999,2.4994,2.4992,2.4999,2.5,2.5002,2.503,2.5001,2.5002,2.5003,2.5062,2.5063,2.5064,0,0,0,0,0,0,2.4987,2.4989,2.5007,2.4998,2.5,2.4995,2.5001,2.5,2.5003,2.5,2.4999,2.4998,2.4998,2.5,2.5017,2.503,2.5003,2.5004,2.5061,2.5062,2.5064,2.5088,0,0,0,0,0,0,2.4986,2.4989,2.4998,2.4998,2.5,2.5022,2.5002,2.5001,2.5005,2.5003,2.5004,2.5003,2.4998,2.5015,2.5018,2.5031,2.5005,2.5059,2.5061,2.5063,2.5086,2.509,2.5093,0,0,0,0,0,2.4985,2.5004,2.4998,2.5001,2.5011,2.5022,2.5024,2.5017,2.5006,2.5015,2.5014,2.5003,2.5029,2.5017,2.502,2.5034,2.5058,2.5061,2.5063,2.5084,2.5089,2.5093,0,0,0,0,0,0,2.5005,2.5004,2.4997,2.5016,2.502,2.5019,2.503,2.5022,2.5029,2.5026,2.5018,2.5018,2.5037,2.5037,2.5024,2.5058,2.5042,2.5045,2.5057,2.5062,2.5065,2.5065,2.5005,0,0,0,0,0,2.5011,2.5021,2.5019,2.5036,2.5038,2.5034,2.5039,2.5034,2.5037,2.5038,2.5037,2.5041,2.505,2.5056,2.5063,2.5086,2.5086,2.5097,2.5101,2.5104,2.5106,2.512,2.5125,2.5071,2.5071,2.5071,0,0,2.5024,2.5025,2.5032,2.504,2.5042,2.5053,2.5035,2.5047,2.5055,2.504,2.5055,2.5056,2.5059,2.5079,2.5088,2.508,2.5122,2.5107,2.5109,2.511,2.5123,2.5128,2.5132,2.5073,2.5073,2.5072,0,0,2.5054,2.5056,2.507,2.5073,2.5077,2.5074,2.5078,2.5079,2.5079,2.5095,2.5084,2.5094,2.5109,2.5112,2.5116,2.515,2.5141,2.5152,2.5172,2.5186,2.519,2.5194,2.5207,2.5211,2.5155,2.5155,2.5155,0,2.5071,2.5086,2.5079,2.5092,2.5097,2.5084,2.51,2.5103,2.5109,2.5113,2.5104,2.5124,2.5125,2.5146,2.5155,2.5158,2.5162,2.5152,2.519,2.5193,2.5197,2.5209,2.5214,2.5156,2.5156,2.5156,2.5156,0,2.5106,2.5117,2.5129,2.5136,2.5142,2.5156,2.5152,2.5159,2.5154,2.5152,2.517,2.5171,2.518,2.5185,2.5179,2.5206,2.5201,2.5191,2.5175,2.5203,2.5215,2.5219,2.5158,2.5158,2.5158,2.5157,0,0,2.5147,2.5151,2.5156,2.516,2.5164,2.5172,2.5187,2.5195,2.5202,2.5207,2.522,2.5234,2.5225,2.5229,2.5225,2.5236,2.5264,2.5225,2.5225,2.5233,2.5295,2.5303,2.5308,2.5259,2.526,2.526,2.5295,0,2.5177,2.5202,2.5197,2.5221,2.5232,2.5222,2.5234,2.5238,2.5238,2.5248,2.5247,2.5258,2.5245,2.5248,2.5259,2.5259,2.5277,2.5256,2.5271,2.5271,2.527,2.5314,2.5322,2.5355,2.5299,2.53,2.5301,0,2.5215,2.5223,2.5248,2.5252,2.5257,2.5268,2.5277,2.5286,2.5291,2.529,2.5296,2.529,2.5305,2.5289,2.531,2.5296,2.5302,2.5303,2.5305,2.5306,2.5288,2.5317,2.5365,2.537,2.5308,2.5307,2.5307,0,2.5244,2.526,2.5278,2.5281,2.5286,2.5295,2.5297,2.5301,2.5308,2.5316,2.532,2.5329,2.5335,2.5342,2.5339,2.5328,2.5362,2.5345,2.5362,2.5362,2.5369,2.5369,2.5419,2.5373,2.5373,2.5373,2.5373,0,2.5278,2.5295,2.5291,2.5302,2.532,2.5315,2.5334,2.5335,2.5339,2.5351,2.5342,2.5353,2.5348,2.5359,2.5357,2.5376,2.5378,2.5378,2.5377,2.5379,2.5379,2.5383,2.5381,2.5374,2.5374,2.5373,2.5373,0,2.5313,2.5311,2.533,2.5334,2.5335,2.5349,2.5352,2.5363,2.5362,2.5377,2.538,2.538,2.5392,2.539,2.5404,2.5402,2.5426,2.5422,2.5425,2.5424,2.5441,2.544,2.5496,2.5503,2.5452,2.5452,2.5452,0,2.5335,2.5348,2.5353,2.536,2.5364,2.5375,2.5382,2.5378,2.5386,2.5394,2.5404,2.5416,2.5425,2.5446,2.5447,2.5458,2.5455,2.5474,2.5457,2.5459,2.5456,2.5456,2.5458,2.5477,2.5478,2.5478,2.5479,0,2.5375,2.5374,2.5384,2.5395,2.5403,2.5411,2.5418,2.5425,2.5421,2.5431,2.5444,2.5451,2.5466,2.5479,2.5489,2.5492,2.5486,2.5484,2.5489,2.5491,2.5492,2.5493,2.5434,2.5483,2.5483,2.5482,2.5482,2.5482,2.5405,2.5416,2.5422,2.5434,2.5439,2.5446,2.5457,2.5459,2.547,2.5481,2.5479,2.5494,2.55,2.5514,2.5519,2.5531,2.5524,2.553,2.5532,2.5534,2.5537,2.549,2.5533,2.5533,2.5533,2.5533,2.5532,0,2.5445,2.5449,2.546,2.5471,2.5481,2.5474,2.5482,2.549,2.5504,2.5511,2.5521,2.5537,2.5549,2.5552,2.5564,2.5574,2.5571,2.5577,2.5577,2.5578,2.5542,2.5537,2.5579,2.5579,2.5579,2.5579,2.5579,2.5579,2.5468,2.5486,2.5486,2.5508,2.5512,2.5527,2.5532,2.5539,2.5545,2.5563,2.5574,2.5576,2.5581,2.5594,2.5606,2.5606,2.5611,2.5619,2.5618,2.5585,2.558,2.5576,2.5571,2.562,2.562,2.5654,2.5654,2.5654]},{"header":{"parameterUnit":"m.s-1","parameterCategory":1,"la1":30.2991,"la2":30.254,"lo1":-89.0895,"lo2":-89.0444,"dy":0.0017,"dx":0.0017,"nx":28,"ny":28,"refTime":"2023-08-03T03:00:00:Z","depth":0,"parameterNumber":3,"parameterNumberName":"V-component_of_WINDS"},"data":[0,0,0,0,0,0,0,0,0,0,0,0,0,0,0,0,0,0,0,0,0,0,0,0,0,0,0,0,0,0,0,0,0,0,0,0,0,0,0,0,0,0,0,0,0,0,0,0,0,0,0,0,0,0,0,0,0,0,-1.0914,-1.0915,0,-1.0975,-1.0976,-1.0977,-1.1002,-1.1002,-1.1002,-1.1002,-1.1066,-1.1068,-1.107,0,0,0,0,0,0,0,0,0,0,0,0,0,-1.0821,-1.0823,-1.0914,-1.0915,-1.0915,-1.0975,-1.0976,-1.0977,-1.1002,-1.1002,-1.1002,-1.1002,-1.1065,-1.1068,-1.107,0,0,0,0,0,0,0,0,0,0,0,0,0,-1.087,-1.0823,-1.0914,-1.0935,-1.0938,-1.0975,-1.0976,-1.0977,-1.1002,-1.1002,-1.1002,-1.1002,-1.1065,-1.1067,-1.107,-1.1091,0,0,-1.1078,-1.108,0,0,0,0,0,0,0,0,-1.0867,-1.0873,-1.0931,-1.0934,-1.0937,-1.0981,-1.0967,-1.1015,-1.1002,-1.0978,-1.1002,-1.1002,-1.1038,-1.1043,-1.1055,-1.1094,-1.1097,-1.1079,-1.108,-1.1082,-1.1082,0,0,0,0,0,0,0,-1.0864,-1.0871,-1.0938,-1.0932,-1.0935,-1.0943,-1.0949,-1.0976,-1.1008,-1.098,-1.0982,-1.0989,-1.1039,-1.1052,-1.1057,-1.1098,-1.1079,-1.1081,-1.1083,-1.1084,-1.116,-1.116,0,0,0,0,0,0,-1.0856,-1.0868,-1.0936,-1.094,-1.0901,-1.0944,-1.0952,-1.0967,-1.1008,-1.1014,-1.0989,-1.099,-1.1048,-1.1053,-1.1059,-1.1088,-1.1082,-1.1084,-1.1086,-1.116,-1.116,-1.1161,0,0,0,0,0,0,-1.0854,-1.0862,-1.0934,-1.0904,-1.0914,-1.0946,-1.0963,-1.0968,-1.0981,-1.1015,-1.1021,-1.0996,-1.1048,-1.1055,-1.1083,-1.109,-1.1085,-1.1088,-1.1159,-1.116,-1.116,-1.1144,0,0,0,0,0,0,-1.0851,-1.0861,-1.0869,-1.0904,-1.0916,-1.0956,-1.0963,-1.097,-1.0986,-1.0987,-1.1023,-1.1029,-1.1048,-1.1079,-1.1086,-1.1094,-1.109,-1.1159,-1.1159,-1.116,-1.1144,-1.1144,-1.1144,0,0,0,0,0,-1.0848,-1.0862,-1.0869,-1.0877,-1.0925,-1.0956,-1.0963,-1.0985,-1.0986,-1.0994,-1.1017,-1.1028,-1.1088,-1.1082,-1.109,-1.1099,-1.1158,-1.1159,-1.116,-1.1145,-1.1144,-1.1144,0,0,0,0,0,0,-1.0826,-1.0867,-1.0875,-1.09,-1.0925,-1.0961,-1.0972,-1.0983,-1.1008,-1.1009,-1.1035,-1.1043,-1.1069,-1.1087,-1.1079,-1.1123,-1.1124,-1.1127,-1.111,-1.111,-1.111,-1.1105,-1.1092,0,0,0,0,0,-1.0824,-1.0845,-1.088,-1.0899,-1.0911,-1.0939,-1.0953,-1.0968,-1.0995,-1.1005,-1.1029,-1.1055,-1.108,-1.1096,-1.1121,-1.1147,-1.1157,-1.1158,-1.1158,-1.1157,-1.1159,-1.1177,-1.1178,-1.1163,-1.1163,-1.1163,0,0,-1.082,-1.0845,-1.0856,-1.0895,-1.0915,-1.0938,-1.0947,-1.097,-1.0987,-1.1009,-1.1037,-1.1056,-1.1087,-1.1115,-1.1128,-1.113,-1.1165,-1.1158,-1.1158,-1.116,-1.1178,-1.1179,-1.118,-1.1164,-1.1164,-1.1164,0,0,-1.0824,-1.0844,-1.0863,-1.0884,-1.0916,-1.0935,-1.0939,-1.0974,-1.0988,-1.1016,-1.1034,-1.1055,-1.1097,-1.1119,-1.1136,-1.1151,-1.1163,-1.1158,-1.1158,-1.1174,-1.1176,-1.1177,-1.1183,-1.1185,-1.116,-1.116,-1.116,0,-1.0815,-1.0849,-1.0872,-1.0894,-1.0911,-1.0932,-1.0952,-1.0972,-1.101,-1.1021,-1.1023,-1.1078,-1.11,-1.1134,-1.1138,-1.1151,-1.1158,-1.1154,-1.1173,-1.1175,-1.1176,-1.1183,-1.1185,-1.1159,-1.116,-1.116,-1.116,0,-1.0837,-1.086,-1.0872,-1.0909,-1.0927,-1.0948,-1.0976,-1.0992,-1.1006,-1.1025,-1.1056,-1.1084,-1.1115,-1.1125,-1.1138,-1.1162,-1.1162,-1.1168,-1.1171,-1.1177,-1.1184,-1.1186,-1.1159,-1.1159,-1.1159,-1.1159,0,0,-1.0827,-1.0878,-1.0882,-1.0899,-1.0937,-1.0956,-1.0979,-1.101,-1.1024,-1.105,-1.1071,-1.1108,-1.1114,-1.1133,-1.115,-1.1164,-1.1177,-1.1169,-1.117,-1.117,-1.1206,-1.1201,-1.1204,-1.1185,-1.1185,-1.1186,-1.1204,0,-1.0837,-1.0879,-1.0901,-1.0934,-1.0957,-1.0978,-1.0998,-1.1024,-1.1044,-1.1067,-1.1089,-1.1114,-1.1121,-1.1133,-1.1148,-1.1172,-1.1184,-1.1171,-1.1206,-1.1206,-1.1197,-1.1207,-1.1202,-1.1218,-1.1207,-1.1207,-1.1207,0,-1.0854,-1.088,-1.0915,-1.0951,-1.0962,-1.098,-1.1011,-1.1033,-1.1063,-1.1077,-1.1099,-1.1115,-1.1142,-1.1143,-1.1181,-1.1172,-1.1188,-1.1202,-1.1203,-1.1207,-1.1207,-1.1212,-1.1223,-1.1226,-1.1212,-1.1211,-1.1211,0,-1.0845,-1.0889,-1.0916,-1.093,-1.0973,-1.0985,-1.1004,-1.1034,-1.1052,-1.108,-1.1093,-1.1123,-1.114,-1.1164,-1.119,-1.1188,-1.1226,-1.1228,-1.1239,-1.1238,-1.1246,-1.1245,-1.126,-1.1255,-1.1255,-1.1255,-1.1255,0,-1.0853,-1.0874,-1.0912,-1.0929,-1.0954,-1.098,-1.1004,-1.1025,-1.1052,-1.1074,-1.1094,-1.1115,-1.1147,-1.1172,-1.1192,-1.1221,-1.1228,-1.1241,-1.1246,-1.1239,-1.1238,-1.125,-1.125,-1.1256,-1.1256,-1.1255,-1.1255,0,-1.0847,-1.0873,-1.0904,-1.0943,-1.0953,-1.097,-1.1004,-1.1021,-1.1043,-1.107,-1.1079,-1.1112,-1.1143,-1.1171,-1.1211,-1.1225,-1.1255,-1.1261,-1.1245,-1.1248,-1.1257,-1.1256,-1.128,-1.1285,-1.1277,-1.1277,-1.1277,0,-1.085,-1.0867,-1.0908,-1.0924,-1.0943,-1.0968,-1.0987,-1.1015,-1.1034,-1.1071,-1.1085,-1.1117,-1.1144,-1.1192,-1.1221,-1.1253,-1.126,-1.1267,-1.1265,-1.1259,-1.1262,-1.1261,-1.1263,-1.1267,-1.1266,-1.1266,-1.1266,0,-1.0855,-1.0868,-1.0894,-1.0925,-1.0947,-1.0973,-1.1,-1.1012,-1.1045,-1.1066,-1.1097,-1.1118,-1.1161,-1.1193,-1.1228,-1.1249,-1.1264,-1.1267,-1.1271,-1.1264,-1.1254,-1.1261,-1.1245,-1.1266,-1.1266,-1.1266,-1.1266,-1.1266,-1.0854,-1.0871,-1.0903,-1.0932,-1.0955,-1.098,-1.0999,-1.1023,-1.105,-1.1086,-1.1102,-1.1134,-1.1167,-1.1216,-1.1237,-1.1264,-1.1266,-1.1272,-1.1274,-1.1275,-1.1274,-1.125,-1.127,-1.127,-1.127,-1.127,-1.127,0,-1.0861,-1.0883,-1.0909,-1.0946,-1.097,-1.0981,-1.1012,-1.1031,-1.106,-1.1089,-1.1115,-1.1153,-1.1185,-1.1217,-1.1251,-1.1267,-1.1275,-1.1275,-1.1274,-1.1279,-1.1269,-1.1262,-1.1268,-1.1268,-1.1268,-1.1268,-1.1268,-1.1268,-1.0866,-1.0895,-1.0912,-1.0954,-1.0976,-1.1008,-1.1025,-1.1049,-1.1072,-1.1113,-1.114,-1.1161,-1.1192,-1.1229,-1.1259,-1.1268,-1.128,-1.1279,-1.129,-1.128,-1.1279,-1.1279,-1.1273,-1.1281,-1.1281,-1.1297,-1.1298,-1.1298]}]]